Regional Weather Roundup
Issued by NWS

Home | Current Version | Previous Version | Text Only | Print | Product List | Glossary On
Versions: 1 2 3 4 5 6 7 8 9 10 11 12 13 14 15 16 17 18 19 20 21 22 23 24 25 26 27 28 29 30 31 32 33 34 35 36 37 38 39 40 41 42 43 44 45 46 47 48 49 50
000
ASUS44 KOUN 230710
RWROK

WEATHER ROUNDUP FOR OKLAHOMA
NATIONAL WEATHER SERVICE NORMAN OK
100 AM CST THU FEB 23 2017

NOTE: "FAIR" INDICATES FEW OR NO CLOUDS BELOW 12,000 FEET WITH NO
      SIGNIFICANT WEATHER AND/OR OBSTRUCTIONS TO VISIBILITY.

OKZ001>007-009>012-014-015-017-230800-
NORTHWEST OKLAHOMA AND THE PANHANDLE

CITY           SKY/WX    TMP DP  RH WIND       PRES   REMARKS
GAGE           CLOUDY    60  32  34 SW10      29.63F
GUYMON         CLEAR     52  27  38 SW14      29.64F
ENID/WOODRING  CLEAR     46  45  93 SE3       29.61F
$$

OKZ016-021>023-033>039-044-045-230800-
SOUTHWEST OKLAHOMA

CITY           SKY/WX    TMP DP  RH WIND       PRES   REMARKS
LAWTON/REGL    CLOUDY    51  45  79 CALM      29.63F
LAWTON/FT SILL CLOUDY    58  44  58 S5        29.62F
FREDERICK      CLEAR     58  46  64 SW5       29.60F
CLINTON        PTCLDY    60  42  51 S10       29.63F
HOBART         CLOUDY    59  45  59 SW9       29.62F
ALTUS AFB      CLOUDY    55  44  66 CALM      29.62S
$$

OKZ018>020-024>031-230800-
CENTRAL OKLAHOMA

CITY           SKY/WX    TMP DP  RH WIND       PRES   REMARKS
OKLAHOMA CITY  MOCLDY    53  43  68 SE7       29.63F
OKC/WILEY POST MOCLDY    60  44  55 S10       29.62F
OKC/TINKER AFB PTCLDY    58  42  53 SE10      29.62F
STILLWATER     PTCLDY    49  32  52 E5        29.62F
GUTHRIE        PTCLDY    59  43  55 S8        29.61F
$$

OKZ008-013-054>072-230800-
NORTHEAST OKLAHOMA

CITY           SKY/WX    TMP DP  RH WIND       PRES   REMARKS
TULSA          PTCLDY    59  46  62 SE7       29.63F
TULSA/JONES    PTCLDY    52  43  71 CALM      29.65F
PONCA CITY     CLOUDY    51  42  71 SE5       29.62F
BARTLESVILLE   CLEAR     42  40  92 CALM      29.65F
MUSKOGEE       PTCLDY    59  53  80 SE7       29.68F
$$

OKZ032-040>043-046>053-073>077-230800-
SOUTH CENTRAL/SOUTHEAST OKLAHOMA

CITY           SKY/WX    TMP DP  RH WIND       PRES   REMARKS
ARDMORE/DWNTWN CLEAR     55  45  67 CALM      29.66F
MCALESTER      MOCLDY    64  51  62 S5        29.69F
$$





USA.gov is the U.S. government's official web portal to all federal, state and local government web resources and services.